Time,TemperatureF,DewpointF,PressureIn,WindDirection,WindDirectionDegrees,WindSpeedMPH,WindSpeedGustMPH,Humidity,HourlyPrecipIn,Conditions,Clouds,dailyrainin,SolarRadiationWatts/m^2,SoftwareType,DateUTC
2013-03-06 00:01:00,37.0,37.0,-100.00,SW,224,0.0,5.0,100,0.00,,,0.00,0.000000,,2013-03-06 08:01:00,
2013-03-06 00:11:00,37.0,37.0,-100.00,SW,224,0.0,5.0,100,0.00,,,0.00,0.000000,,2013-03-06 08:11:00,
2013-03-06 00:21:00,37.0,37.0,-100.00,SW,224,0.0,5.0,100,0.00,,,0.00,0.000000,,2013-03-06 08:21:00,
2013-03-06 00:52:00,35.0,35.0,-100.00,South,184,2.0,8.0,100,0.00,,,0.00,0.000000,,2013-03-06 08:52:00,
2013-03-06 01:01:00,35.0,35.0,-100.00,South,184,2.0,8.0,100,0.00,,,0.00,0.000000,,2013-03-06 09:01:00,
2013-03-06 01:12:00,35.0,35.0,-100.00,South,184,2.0,8.0,100,0.00,,,0.00,0.000000,,2013-03-06 09:12:00,
2013-03-06 01:21:00,35.0,35.0,-100.00,South,184,2.0,8.0,100,0.00,,,0.00,0.000000,,2013-03-06 09:21:00,
2013-03-06 01:52:00,35.0,35.0,-100.00,NNW,334,0.0,5.0,100,0.01,,,0.01,0.000000,,2013-03-06 09:52:00,
2013-03-06 02:01:00,35.0,35.0,-100.00,NNW,334,0.0,5.0,100,0.01,,,0.01,0.000000,,2013-03-06 10:01:00,
2013-03-06 02:11:00,35.0,35.0,-100.00,NNW,334,0.0,5.0,100,0.01,,,0.01,0.000000,,2013-03-06 10:11:00,
2013-03-06 02:21:00,35.0,35.0,-100.00,NNW,334,0.0,5.0,100,0.01,,,0.01,0.000000,,2013-03-06 10:21:00,
2013-03-06 02:52:00,36.0,36.0,-100.00,North,11,0.0,5.0,100,0.02,,,0.03,0.000000,,2013-03-06 10:52:00,
2013-03-06 03:02:00,36.0,36.0,-100.00,North,11,0.0,5.0,100,0.02,,,0.03,0.000000,,2013-03-06 11:02:00,
2013-03-06 03:11:00,36.0,36.0,-100.00,North,11,0.0,5.0,100,0.02,,,0.03,0.000000,,2013-03-06 11:11:00,
2013-03-06 03:22:00,36.0,36.0,-100.00,North,11,0.0,5.0,100,0.02,,,0.03,0.000000,,2013-03-06 11:22:00,
2013-03-06 03:52:00,33.0,33.0,-100.00,NE,41,0.0,4.0,100,0.03,,,0.06,0.000000,,2013-03-06 11:52:00,
2013-03-06 04:01:00,33.0,33.0,-100.00,NE,41,0.0,4.0,100,0.03,,,0.06,0.000000,,2013-03-06 12:01:00,
2013-03-06 04:11:00,33.0,33.0,-100.00,NE,41,0.0,4.0,100,0.03,,,0.06,0.000000,,2013-03-06 12:11:00,
2013-03-06 04:21:00,33.0,33.0,-100.00,NE,41,0.0,4.0,100,0.03,,,0.06,0.000000,,2013-03-06 12:21:00,
2013-03-06 04:52:00,33.0,33.0,-100.00,NNW,342,0.0,3.0,100,0.01,,,-99.99,0.000000,,2013-03-06 12:52:00,
2013-03-06 05:02:00,33.0,33.0,-100.00,NNW,342,0.0,3.0,100,0.01,,,-99.99,0.000000,,2013-03-06 13:02:00,
2013-03-06 05:11:00,33.0,33.0,-100.00,NNW,342,0.0,3.0,100,0.01,,,-99.99,0.000000,,2013-03-06 13:11:00,
2013-03-06 05:21:00,33.0,33.0,-100.00,NNW,342,0.0,3.0,100,0.01,,,-99.99,0.000000,,2013-03-06 13:21:00,
2013-03-06 05:52:00,32.0,32.0,-100.00,North,6,0.0,3.0,100,0.03,,,0.10,0.000000,,2013-03-06 13:52:00,
2013-03-06 06:01:00,32.0,32.0,-100.00,North,6,0.0,3.0,100,0.03,,,0.10,0.000000,,2013-03-06 14:01:00,
2013-03-06 06:11:00,32.0,32.0,-100.00,North,6,0.0,3.0,100,0.03,,,0.10,0.000000,,2013-03-06 14:11:00,
2013-03-06 06:21:00,32.0,32.0,-100.00,North,6,0.0,3.0,100,0.03,,,0.10,0.000000,,2013-03-06 14:21:00,
2013-03-06 06:52:00,32.0,32.0,-100.00,NNW,346,0.0,0.0,100,0.01,,,0.11,0.000000,,2013-03-06 14:52:00,
2013-03-06 07:01:00,32.0,32.0,-100.00,NNW,346,0.0,0.0,100,0.01,,,0.11,0.000000,,2013-03-06 15:01:00,
2013-03-06 07:11:00,32.0,32.0,-100.00,NNW,346,0.0,0.0,100,0.01,,,0.11,0.000000,,2013-03-06 15:11:00,
2013-03-06 07:21:00,32.0,32.0,-100.00,NNW,346,0.0,0.0,100,0.01,,,0.11,0.000000,,2013-03-06 15:21:00,
2013-03-06 07:52:00,32.0,32.0,-100.00,North,3,0.0,2.0,100,0.00,,,0.11,3.000000,,2013-03-06 15:52:00,
2013-03-06 08:01:00,32.0,32.0,-100.00,North,3,0.0,2.0,100,0.00,,,0.11,3.000000,,2013-03-06 16:01:00,
2013-03-06 08:11:00,32.0,32.0,-100.00,North,3,0.0,2.0,100,0.00,,,0.11,3.000000,,2013-03-06 16:11:00,
2013-03-06 08:21:00,32.0,32.0,-100.00,North,3,0.0,2.0,100,0.00,,,0.11,3.000000,,2013-03-06 16:21:00,
2013-03-06 08:52:00,32.0,32.0,-100.00,NNE,22,3.0,5.0,100,0.00,,,0.11,29.000000,,2013-03-06 16:52:00,
2013-03-06 09:01:00,32.0,32.0,-100.00,NNE,22,3.0,5.0,100,0.00,,,0.11,29.000000,,2013-03-06 17:01:00,
2013-03-06 09:11:00,32.0,32.0,-100.00,NNE,22,3.0,5.0,100,0.00,,,0.11,29.000000,,2013-03-06 17:11:00,
2013-03-06 09:21:00,32.0,32.0,-100.00,NNE,22,3.0,5.0,100,0.00,,,0.11,29.000000,,2013-03-06 17:21:00,
2013-03-06 09:25:00,33.0,33.0,-100.00,North,354,1.0,5.0,100,0.04,,,0.15,65.000000,,2013-03-06 17:25:00,
2013-03-06 09:52:00,33.0,33.0,-100.00,North,354,1.0,5.0,100,0.04,,,0.15,65.000000,,2013-03-06 17:52:00,
2013-03-06 10:01:00,33.0,33.0,-100.00,North,354,1.0,5.0,100,0.04,,,0.15,65.000000,,2013-03-06 18:01:00,
2013-03-06 10:52:00,34.0,34.0,-100.00,North,357,0.0,3.0,100,0.06,,,0.21,75.000000,,2013-03-06 18:52:00,
2013-03-06 11:02:00,34.0,34.0,-100.00,North,357,0.0,3.0,100,0.06,,,0.21,75.000000,,2013-03-06 19:02:00,
2013-03-06 11:11:00,34.0,34.0,-100.00,North,357,0.0,3.0,100,0.06,,,0.21,75.000000,,2013-03-06 19:11:00,
2013-03-06 11:21:00,34.0,34.0,-100.00,North,357,0.0,3.0,100,0.06,,,0.21,75.000000,,2013-03-06 19:21:00,
2013-03-06 11:53:00,35.0,35.0,-100.00,NNW,348,0.0,3.0,100,0.03,,,0.24,103.000000,,2013-03-06 19:53:00,
2013-03-06 12:01:00,35.0,35.0,-100.00,NNW,348,0.0,3.0,100,0.03,,,0.24,103.000000,,2013-03-06 20:01:00,
2013-03-06 12:11:00,35.0,35.0,-100.00,NNW,348,0.0,3.0,100,0.03,,,0.24,103.000000,,2013-03-06 20:11:00,
2013-03-06 12:21:00,35.0,35.0,-100.00,NNW,348,0.0,3.0,100,0.03,,,0.24,103.000000,,2013-03-06 20:21:00,
2013-03-06 12:52:00,36.0,36.0,-100.00,NNE,24,0.0,3.0,100,0.01,,,0.25,102.000000,,2013-03-06 20:52:00,
2013-03-06 13:02:00,36.0,36.0,-100.00,NNE,24,0.0,3.0,100,0.01,,,0.25,102.000000,,2013-03-06 21:02:00,
2013-03-06 13:11:00,36.0,36.0,-100.00,NNE,24,0.0,3.0,100,0.01,,,0.25,102.000000,,2013-03-06 21:11:00,
2013-03-06 13:21:00,36.0,36.0,-100.00,NNE,24,0.0,3.0,100,0.01,,,0.25,102.000000,,2013-03-06 21:21:00,
2013-03-06 13:52:00,37.0,37.0,-100.00,East,97,0.0,3.0,100,0.06,,,0.31,72.000000,,2013-03-06 21:52:00,
2013-03-06 14:01:00,37.0,37.0,-100.00,East,97,0.0,3.0,100,0.06,,,0.31,72.000000,,2013-03-06 22:01:00,
2013-03-06 14:11:00,37.0,37.0,-100.00,East,97,0.0,3.0,100,0.06,,,0.31,72.000000,,2013-03-06 22:11:00,
2013-03-06 14:21:00,37.0,37.0,-100.00,East,97,0.0,3.0,100,0.06,,,0.31,72.000000,,2013-03-06 22:21:00,
2013-03-06 14:52:00,36.0,36.0,-100.00,NE,39,1.0,3.0,100,0.03,,,0.34,158.000000,,2013-03-06 22:52:00,
2013-03-06 15:01:00,36.0,36.0,-100.00,NE,39,1.0,3.0,100,0.03,,,0.34,158.000000,,2013-03-06 23:01:00,
2013-03-06 15:11:00,36.0,36.0,-100.00,NE,39,1.0,3.0,100,0.03,,,0.34,158.000000,,2013-03-06 23:11:00,
2013-03-06 15:21:00,36.0,36.0,-100.00,NE,39,1.0,3.0,100,0.03,,,0.34,158.000000,,2013-03-06 23:21:00,
2013-03-06 15:52:00,37.0,37.0,-100.00,NNE,30,1.0,5.0,100,0.03,,,0.37,170.000000,,2013-03-06 23:52:00,
2013-03-06 16:01:00,37.0,37.0,-100.00,NNE,30,1.0,5.0,100,0.03,,,0.37,170.000000,,2013-03-07 00:01:00,
2013-03-06 16:11:00,37.0,37.0,-100.00,NNE,30,1.0,5.0,100,0.03,,,0.37,170.000000,,2013-03-07 00:11:00,
2013-03-06 16:21:00,37.0,37.0,-100.00,NNE,30,1.0,5.0,100,0.03,,,0.37,170.000000,,2013-03-07 00:21:00,
2013-03-06 16:52:00,39.0,39.0,-100.00,NE,44,0.0,5.0,100,0.00,,,0.37,135.000000,,2013-03-07 00:52:00,
2013-03-06 17:01:00,39.0,39.0,-100.00,NE,44,0.0,5.0,100,0.00,,,0.37,135.000000,,2013-03-07 01:01:00,
2013-03-06 17:11:00,39.0,39.0,-100.00,NE,44,0.0,5.0,100,0.00,,,0.37,135.000000,,2013-03-07 01:11:00,
2013-03-06 17:21:00,39.0,39.0,-100.00,NE,44,0.0,5.0,100,0.00,,,0.37,135.000000,,2013-03-07 01:21:00,
2013-03-06 17:52:00,38.0,38.0,-100.00,NNE,25,0.0,4.0,100,0.00,,,0.37,43.000000,,2013-03-07 01:52:00,
2013-03-06 18:01:00,38.0,38.0,-100.00,NNE,25,0.0,4.0,100,0.00,,,0.37,43.000000,,2013-03-07 02:01:00,
2013-03-06 18:11:00,38.0,38.0,-100.00,NNE,25,0.0,4.0,100,0.00,,,0.37,43.000000,,2013-03-07 02:11:00,
2013-03-06 18:21:00,38.0,38.0,-100.00,NNE,25,0.0,4.0,100,0.00,,,0.37,43.000000,,2013-03-07 02:21:00,
2013-03-06 19:01:00,38.0,38.0,-100.00,NNW,334,0.0,4.0,100,0.00,,,0.37,4.000000,,2013-03-07 03:01:00,
2013-03-06 19:11:00,38.0,38.0,-100.00,NNW,334,0.0,4.0,100,0.00,,,0.37,4.000000,,2013-03-07 03:11:00,
2013-03-06 19:21:00,38.0,38.0,-100.00,NNW,334,0.0,4.0,100,0.00,,,0.37,4.000000,,2013-03-07 03:21:00,
2013-03-06 19:52:00,38.0,38.0,-100.00,North,5,0.0,3.0,100,0.00,,,0.37,0.000000,,2013-03-07 03:52:00,
2013-03-06 20:01:00,38.0,38.0,-100.00,North,5,0.0,3.0,100,0.00,,,0.37,0.000000,,2013-03-07 04:01:00,
2013-03-06 20:11:00,38.0,38.0,-100.00,North,5,0.0,3.0,100,0.00,,,0.37,0.000000,,2013-03-07 04:11:00,
2013-03-06 20:21:00,38.0,38.0,-100.00,North,5,0.0,3.0,100,0.00,,,0.37,0.000000,,2013-03-07 04:21:00,
2013-03-06 20:52:00,38.0,38.0,-100.00,East,80,0.0,3.0,100,0.00,,,0.37,0.000000,,2013-03-07 04:52:00,
2013-03-06 21:01:00,38.0,38.0,-100.00,East,80,0.0,3.0,100,0.00,,,0.37,0.000000,,2013-03-07 05:01:00,
2013-03-06 21:12:00,38.0,38.0,-100.00,East,80,0.0,3.0,100,0.00,,,0.37,0.000000,,2013-03-07 05:12:00,
2013-03-06 21:22:00,38.0,38.0,-100.00,East,80,0.0,3.0,100,0.00,,,0.37,0.000000,,2013-03-07 05:22:00,
2013-03-06 21:52:00,38.0,38.0,-100.00,NNE,30,2.0,4.0,100,0.00,,,0.37,0.000000,,2013-03-07 05:52:00,
2013-03-06 22:01:00,38.0,38.0,-100.00,NNE,30,2.0,4.0,100,0.00,,,0.37,0.000000,,2013-03-07 06:01:00,
2013-03-06 22:11:00,38.0,38.0,-100.00,NNE,30,2.0,4.0,100,0.00,,,0.37,0.000000,,2013-03-07 06:11:00,
2013-03-06 22:21:00,38.0,38.0,-100.00,NNE,30,2.0,4.0,100,0.00,,,0.37,0.000000,,2013-03-07 06:21:00,
2013-03-06 22:52:00,38.0,38.0,-100.00,WSW,257,0.0,4.0,100,0.00,,,0.37,0.000000,,2013-03-07 06:52:00,
2013-03-06 23:01:00,38.0,38.0,-100.00,WSW,257,0.0,4.0,100,0.00,,,0.37,0.000000,,2013-03-07 07:01:00,
2013-03-06 23:11:00,38.0,38.0,-100.00,WSW,257,0.0,4.0,100,0.00,,,0.37,0.000000,,2013-03-07 07:11:00,
2013-03-06 23:21:00,38.0,38.0,-100.00,WSW,257,0.0,4.0,100,0.00,,,0.37,0.000000,,2013-03-07 07:21:00,
2013-03-06 23:52:00,38.0,38.0,-100.00,NNE,24,0.0,2.0,100,0.00,,,0.37,0.000000,,2013-03-07 07:52:00,